Date String (YYYY-MM-DD hh:mm:ss) UTC,Instrument flags,Ambient pressure (hPa),Sample flow (lpm),Bypass flow (lpm),Sample temperature (°C),Ambient temperature (°C),ASC tube jacket temperature (°C),LED temperature (°C),Box temperature (°C),Sample RH (%),Span deviation,Mass concentration (μg/m³),Mass concentration (μg/m³),Mass concentration (μg/m³)
DateTimeUTC,F1_M11,P_M11,Q1_M11,Q2_M11,T1_M11,T2_M11,T3_M11,T4_M11,T5_M11,U1_M11,ZSPAN_M11,X0_M11,X2_M11,X1_M11
2022-08-01 12:00:00,,0828.9,5.00,0.00,29.8,28.4,00.0,38.6,31.7,24.2,0000.0,0009.05,0005.96,0005.62
2022-08-01 12:01:00,,0828.9,5.00,0.00,29.8,28.5,00.0,38.6,31.7,24.5,0000.0,0009.10,0005.98,0005.65
2022-08-01 12:02:00,,0828.9,4.99,0.00,29.8,28.5,00.0,38.6,31.7,24.5,0000.0,0009.17,0005.99,0005.68
2022-08-01 12:03:00,,0829.0,5.01,0.00,29.8,28.6,00.0,38.6,31.7,24.1,0000.0,0008.94,0005.99,0005.69
2022-08-01 12:04:00,,0829.0,5.01,0.00,29.8,28.6,00.0,38.6,31.7,24.0,0000.0,0008.85,0005.96,0005.68
2022-08-01 12:05:00,,0829.0,4.99,0.00,29.8,28.7,00.0,38.6,31.7,24.1,0000.0,0008.85,0005.97,0005.67
2022-08-01 12:06:00,,0829.0,5.01,0.00,29.8,28.7,00.0,38.6,31.7,24.1,0000.0,0008.91,0006.00,0005.68
2022-08-01 12:07:00,,0829.0,5.00,0.00,29.9,28.8,00.0,38.6,31.8,24.0,0000.0,0008.47,0005.97,0005.66
2022-08-01 12:08:00,,0829.1,4.99,0.00,29.9,28.8,00.0,38.6,31.8,24.0,0000.0,0008.41,0005.95,0005.64
2022-08-01 12:09:00,,0829.1,5.00,0.00,29.9,28.8,00.0,38.7,31.8,23.9,0000.0,0008.39,0005.95,0005.64
2022-08-01 12:10:00,,0829.1,5.00,0.00,29.9,28.9,00.0,38.7,31.9,24.1,0000.0,0008.47,0006.02,0005.69
2022-08-01 12:11:00,,0829.1,5.00,0.00,29.9,28.9,00.0,38.7,31.9,24.2,0000.0,0008.62,0006.11,0005.76
2022-08-01 12:12:00,,0829.1,4.99,0.00,30.0,28.9,00.0,38.7,31.9,24.2,0000.0,0008.63,0006.16,0005.81
2022-08-01 12:13:00,,0829.1,5.01,0.00,30.0,28.9,00.0,38.7,31.9,24.3,0000.0,0008.80,0006.21,0005.84
2022-08-01 12:14:00,,0829.0,5.00,0.00,30.0,29.0,00.0,38.7,31.9,24.3,0000.0,0008.91,0006.29,0005.91
2022-08-01 12:15:00,,0829.0,5.00,0.00,30.0,29.0,00.0,38.8,32.0,24.2,0000.0,0009.21,0006.39,0006.00
2022-08-01 12:16:00,,0829.1,4.99,0.00,30.0,29.0,00.0,38.8,32.0,24.1,0000.0,0009.62,0006.47,0006.08
2022-08-01 12:17:00,,0829.1,5.01,0.00,30.0,29.1,00.0,38.8,32.0,24.1,0000.0,0009.61,0006.49,0006.13
2022-08-01 12:18:00,,0829.1,4.99,0.00,30.0,29.1,00.0,38.8,32.0,24.0,0000.0,0009.72,0006.56,0006.18
2022-08-01 12:19:00,,0829.1,5.00,0.00,30.1,29.1,00.0,38.8,32.0,24.1,0000.0,0009.77,0006.61,0006.22
2022-08-01 12:20:00,,0829.1,5.01,0.00,30.1,29.1,00.0,38.8,32.0,24.0,0000.0,0009.83,0006.65,0006.26
2022-08-01 12:21:00,,0829.1,5.00,0.00,30.1,29.1,00.0,38.8,32.0,24.0,0000.0,0009.77,0006.64,0006.28
2022-08-01 12:22:00,,0829.1,5.00,0.00,30.1,29.0,00.0,38.9,32.0,23.9,0000.0,0009.64,0006.61,0006.27
2022-08-01 12:23:00,,0829.1,5.01,0.00,30.1,28.3,00.0,38.8,31.8,24.0,0000.0,0009.65,0006.59,0006.25
2022-08-01 12:24:00,,0829.1,5.00,0.00,30.0,27.8,00.0,38.8,31.7,24.0,0000.0,0009.42,0006.55,0006.23
2022-08-01 12:25:00,,0829.1,4.99,0.00,30.0,27.7,00.0,38.8,31.7,24.1,0000.0,0009.36,0006.51,0006.19
2022-08-01 12:26:00,,0829.0,5.00,0.00,29.9,27.7,00.0,38.7,31.6,24.2,0000.0,0009.12,0006.51,0006.17
2022-08-01 12:27:00,,0829.1,5.00,0.00,29.9,27.8,00.0,38.7,31.6,24.2,0000.0,0008.80,0006.49,0006.17
2022-08-01 12:28:00,,0829.1,5.00,0.00,29.8,28.0,00.0,38.7,31.6,24.2,0000.0,0008.75,0006.47,0006.15
2022-08-01 12:29:00,,0829.1,5.00,0.00,29.8,28.1,00.0,38.7,31.6,24.3,0000.0,0008.95,0006.41,0006.14
2022-08-01 12:30:00,,0829.1,5.00,0.00,29.8,28.2,00.0,38.7,31.7,24.1,0000.0,0009.29,0006.38,0006.12
2022-08-01 12:31:00,,0829.0,5.00,0.00,29.8,28.3,00.0,38.7,31.7,24.1,0000.0,0009.21,0006.34,0006.10
2022-08-01 12:32:00,,0829.1,5.00,0.00,29.8,28.4,00.0,38.7,31.7,24.1,0000.0,0009.17,0006.30,0006.07
2022-08-01 12:33:00,,0829.1,4.99,0.00,29.8,28.5,00.0,38.7,31.7,24.1,0000.0,0009.16,0006.29,0006.05
2022-08-01 12:34:00,,0829.1,5.01,0.00,29.9,28.6,00.0,38.7,31.7,24.1,0000.0,0009.11,0006.26,0006.03
2022-08-01 12:35:00,,0829.2,4.99,0.00,29.9,28.6,00.0,38.7,31.8,24.1,0000.0,0009.03,0006.23,0006.00
2022-08-01 12:36:00,,0829.2,5.00,0.00,29.9,28.7,00.0,38.7,31.8,24.1,0000.0,0008.99,0006.21,0006.00
2022-08-01 12:37:00,,0829.2,4.99,0.00,29.9,28.8,00.0,38.7,31.8,24.0,0000.0,0008.93,0006.15,0005.97
2022-08-01 12:38:00,,0829.2,5.01,0.00,29.9,28.8,00.0,38.7,31.8,24.0,0000.0,0009.46,0006.13,0005.95
2022-08-01 12:39:00,,0829.2,5.01,0.00,29.9,28.9,00.0,38.7,31.9,24.0,0000.0,0009.46,0006.13,0005.94
2022-08-01 12:40:00,,0829.2,4.99,0.00,30.0,28.9,00.0,38.7,31.9,24.0,0000.0,0009.22,0006.14,0005.94
2022-08-01 12:41:00,,0829.2,5.01,0.00,30.0,28.9,00.0,38.7,31.9,24.0,0000.0,0008.85,0006.16,0005.95
2022-08-01 12:42:00,,0829.2,4.99,0.00,30.0,29.0,00.0,38.8,31.9,24.0,0000.0,0008.89,0006.18,0005.95
2022-08-01 12:43:00,,0829.2,5.00,0.00,30.0,29.0,00.0,38.8,32.0,24.0,0000.0,0008.93,0006.20,0005.96
2022-08-01 12:44:00,,0829.3,5.01,0.00,30.0,29.1,00.0,38.8,32.0,23.9,0000.0,0008.94,0006.18,0005.95
2022-08-01 12:45:00,,0829.2,5.01,0.00,30.1,29.1,00.0,38.8,32.0,23.8,0000.0,0009.01,0006.18,0005.95
2022-08-01 12:46:00,,0829.3,4.99,0.00,30.1,29.1,00.0,38.8,32.0,23.7,0000.0,0009.06,0006.19,0005.95
2022-08-01 12:47:00,,0829.2,5.01,0.00,30.1,29.1,00.0,38.8,32.0,23.7,0000.0,0009.04,0006.18,0005.94
2022-08-01 12:48:00,,0829.2,5.00,0.00,30.1,28.4,00.0,38.8,31.9,23.7,0000.0,0009.04,0006.18,0005.92
2022-08-01 12:49:00,,0829.2,5.00,0.00,30.1,28.0,00.0,38.8,31.8,23.7,0000.0,0008.59,0006.18,0005.90
2022-08-01 12:50:00,,0829.1,5.00,0.00,30.0,27.9,00.0,38.8,31.7,23.7,0000.0,0008.62,0006.17,0005.89
2022-08-01 12:51:00,,0829.1,5.01,0.00,29.9,27.9,00.0,38.7,31.6,23.9,0000.0,0008.61,0006.14,0005.86
2022-08-01 12:52:00,,0829.1,5.00,0.00,29.9,28.0,00.0,38.7,31.6,23.9,0000.0,0008.56,0006.11,0005.84
2022-08-01 12:53:00,,0829.2,5.00,0.00,29.9,28.1,00.0,38.7,31.6,24.0,0000.0,0008.52,0006.08,0005.83
2022-08-01 12:54:00,,0829.2,4.99,0.00,29.9,28.2,00.0,38.7,31.7,24.0,0000.0,0008.52,0006.06,0005.81
2022-08-01 12:55:00,,0829.2,5.00,0.00,29.9,28.3,00.0,38.7,31.7,24.0,0000.0,0009.11,0006.06,0005.79
2022-08-01 12:56:00,,0829.2,5.00,0.00,29.9,28.4,00.0,38.7,31.7,24.0,0000.0,0009.37,0006.04,0005.77
2022-08-01 12:57:00,,0829.2,4.99,0.00,29.9,28.5,00.0,38.7,31.8,24.0,0000.0,0009.50,0006.05,0005.75
2022-08-01 12:58:00,,0829.2,5.01,0.00,29.9,28.6,00.0,38.7,31.7,24.0,0000.0,0009.48,0006.04,0005.74
2022-08-01 12:59:00,,0829.2,5.00,0.00,29.9,28.7,00.0,38.7,31.8,24.0,0000.0,0009.47,0006.05,0005.75
